Tracking 17143 objects as of 24-May-2015
HD Live streaming from Space Station

TEAMSAT

Track TEAMSAT now!
10-day predictions
TEAMSAT is classified as:


NORAD ID: 25025
Int'l Code: 1997-066C
Perigee: 558.8 km
Apogee: 26,611.9 km
Inclination: 7.7 °
Period: 467.6 minutes
Semi major axis: 19956 km
RCS: 0.5073 m2 (medium)
Launch date: October 30, 1997
Source: European Space Agency (ESA)
Your satellite tracking list
Your tracking list is empty





NASA's NSSDC Master Catalog

Two Line Element Set (TLE):
1 25025U 97066C   15144.52582571 -.00000051  00000-0  19638-3 0  9999
2 25025 007.6967 098.9434 6527532 344.1832 286.0296 03.07951306197669

Source of the keplerian elements: AFSPC

N2YO: 283